Location: Bogis-Bossey
(46.3500°N, 6.1667°E)
Time: 17:18:52
(UTC+00:00)

Cosmos 1356 Rocket - Pass Details

Date: 17 August 2022
Orbit: 539 x 596 km, 81.2° (Epoch: 01 October)

Event Time Altitude Azimuth Distance (km) Brightness Sun altitude
Rises 19:13:29 0° 178° (S) 2,793 6.6 -5.9°
Reaches altitude 10° 19:15:41 10° 174° (S) 1,906 5.8 -6.2°
Maximum altitude 19:19:48 55° 96° (E) 715 3.6 -6.9°
Drops below altitude 10° 19:24:01 10° 19° (NNE) 1,942 6.2 -7.5°
Sets 19:26:16 0° 15° (NNE) 2,851 7.1 -7.9°
